Flag for Norway Weather past 2 weeks in Longyearbyen, Svalbard, Norway

Now
21 °F

Partly sunny.


Feels Like: 1 °F
Forecast: 24 / 35 °F
Wind: 39 mph from Southeast

Location: Svalbard Lufthavn

Current Time: Mar 2, 2015 at 2:39:49 PM

Latest Report: Mar 2, 2015 at 1:50 PM


Visibility: N/A

Pressure: 29.33 "Hg

Humidity: 68%

Dew point: 12 °F

Location of LongyearbyenLocation

Historic Weather in Longyearbyen — Graph

°F

Longyearbyen temperature yesterday

Maximum temperature yesterday: 21 °F (at 6:50 PM)
Minimum temperature yesterday: 14 °F (at 12:50 AM)
Average temperature yesterday: 17 °F

Past Weeks' High & Low Weather Summary

 TemperatureHumidityPressure
High41 °F (Feb 16, 12:50 AM)100% (Feb 17, 9:50 AM)29.92 "Hg (Feb 17, 9:50 AM)
Low-13 °F (Feb 22, 3:50 AM)37% (Feb 24, 9:50 PM)28.94 "Hg (Feb 16, 5:50 PM)
Average12 °F68%29.35 "Hg
* Reported Feb 15 12:20 PM — Mar 2 12:50 PM, Longyearbyen, Weather by CustomWeather, © 2015

Note: Actual official high and low records may vary slightly from our data, if they occured in-between our weather recording intervals... More about our weather records

Advertising

Longyearbyen weather history for previous 24 hours

 ConditionsComfort  
Time TempWeatherWind HumidityBarometerVisibility
12:50 PM
Mon, Mar 2
21 °FPartly sunny.33 mph68%29.36 "HgN/A
11:50 AM21 °FBroken clouds.35 mph68%29.36 "HgN/A
10:50 AM21 °FBroken clouds.28 mph68%29.36 "Hg3 mi
9:50 AM21 °FScattered clouds.32 mph68%29.36 "Hg6 mi
8:50 AM21 °FScattered clouds.33 mph68%29.33 "HgN/A
7:50 AM21 °FPassing clouds.37 mph63%29.30 "HgN/A
6:50 AM21 °FPassing clouds.36 mph74%29.33 "Hg2 mi
5:56 AM21 °FLight snow. Passing clouds.39 mph74%29.30 "HgN/A
4:50 AM21 °FPassing clouds.35 mph74%29.30 "HgN/A
3:50 AM21 °FPassing clouds.32 mph68%29.30 "HgN/A
2:56 AM21 °FPassing clouds.30 mph68%29.30 "HgN/A
1:50 AM21 °FPassing clouds.30 mph68%29.33 "HgN/A
12:50 AM19 °FLight snow. Partly cloudy.37 mph73%29.30 "HgN/A
11:50 PM
Sun, Mar 1
21 °FPassing clouds.39 mph63%N/AN/A
10:50 PM19 °FLight snow. Partly cloudy.37 mph68%29.30 "Hg5 mi
9:50 PM19 °FPartly cloudy.38 mph68%29.30 "HgN/A
8:50 PM19 °FPassing clouds.36 mph68%29.27 "HgN/A
7:50 PM21 °FPassing clouds.35 mph63%29.27 "HgN/A
6:50 PM21 °FPassing clouds.31 mph58%29.27 "HgN/A
5:50 PM19 °FPassing clouds.33 mph63%29.27 "HgN/A
4:50 PM19 °FPassing clouds.28 mph63%29.30 "HgN/A
3:50 PM18 °FPartly sunny.28 mph62%29.30 "HgN/A
2:50 PM18 °FPartly sunny.31 mph62%29.30 "HgN/A
Weather by CustomWeather, © 2015

See weather overviewHow to use our weather pages